OpenBCM V1.08-5-g2f4a (Linux)

Packet Radio Mailbox

IZ3LSV

[San Dona' di P. JN]

 Login: GUEST





  
I0OJJ  > KEPS     19.08.25 01:40l 316 Lines 15020 Bytes #60 (0) @ AMSAT
BID : ORB25231.1
Read: GUEST
Subj: 2Line Orbital Elements 25231.AMSAT
Path: IZ3LSV<IK6IHL<IK7NXU<HB9ON<HB9ON<PI8ZTM<VK2IO<VK2RZ<IR0AAB<I0OJJ
Sent: 250819/0025z @:I0OJJ.ITA.EU [Rome] obcm1.08-10-g596e
From: I0OJJ @ I0OJJ.ITA.EU (Gustavo)
To:   KEPS @ AMSAT
X-Info: This message was generated automatically


QST de KM1P

AMSAT Orbital Elements for Amateur Satellites in TLE Format
From Orbital Analysis Auxilliary Summer Office
New England Sci-Tech STEM Education Center
Narragansett RI August 19, 2025
To all radio amateurs


These element sets describe the orbits of various satellites 
in use by the amateur radio community. For details see:
www.amsat.org/keplerian-elements-formats/

A daily update of element sets is available at:
www.amsat.org/tle/daily-bulletin.txt
or without bulletin text:
www.amsat.org/tle/dailytle.txt


AO-07
1 07530U 74089B   25230.56234934 -.00000033  00000-0  81430-4 0  9998
2 07530 101.9965 235.5768 0012200 350.6201 130.5297 12.53690834322832
UO-11
1 14781U 84021B   25230.46760537  .00001293  00000-0  14123-3 0  9995
2 14781  97.7607 195.4830 0009348 103.0841 257.1420 14.89561650212045
AO-27
1 22825U 93061C   25230.42777425  .00000070  00000-0  43736-4 0  9992
2 22825  98.7316 292.3146 0007268 267.8529  92.1821 14.30818534663706
FO-29
1 24278U 96046B   25230.62170412 -.00000051  00000-0 -17231-4 0  9999
2 24278  98.5648 115.2701 0350223 160.9686 200.4928 13.53251748432499
NOAA-15
1 25338U 98030A   25230.78846351  .00000171  00000-0  87651-4 0  9995
2 25338  98.5335 254.2230 0010903 148.4016 211.7821 14.27013108418418
GO-32
1 25397U 98043D   25230.86986955  .00000075  00000-0  52430-4 0  9998
2 25397  98.9769 211.4767 0001834  43.7570 316.3753 14.24330216408518
ISS
1 25544U 98067A   25230.79219373  .00010232  00000-0  18695-3 0  9993
2 25544  51.6354 356.7686 0003405 237.4664 122.5996 15.50010279524871
NO-44
1 26931U 01043C   25230.57114346  .00000109  00000-0  71842-4 0  9998
2 26931  67.0517 306.8732 0006752 276.2037  83.8296 14.31763707247283
SO-50
1 27607U 02058C   25230.54312148  .00000958  00000-0  13567-3 0  9994
2 27607  64.5545 344.5430 0063702 319.0664  40.5667 14.81792846219801
CO-55
1 27844U 03031E   25230.45149148  .00000291  00000-0  14585-3 0  9998
2 27844  98.6779 237.8289 0009391 352.4388   7.6648 14.24042775148580
CO-57
1 27848U 03031J   25230.57328752  .00000240  00000-0  12509-3 0  9993
2 27848  98.6808 237.9016 0009697   9.5314 350.6047 14.23370990148322
RS-22
1 27939U 03042A   25230.87727338  .00001085  00000-0  17904-3 0  9994
2 27939  98.3344  42.0573 0012124 142.5889 323.5254 14.72500130171175
CO-58
1 28895U 05043F   25230.37121970  .00001503  00000-0  25174-3 0  9997
2 28895  98.2589  15.6368 0015673  86.6127 273.6872 14.71221416 57204
CO-65
1 32785U 08021C   25230.56239498  .00003746  00000-0  26801-3 0  9994
2 32785  97.7900 202.2940 0008917 347.6869  12.4137 15.05041928939606
CO-66
1 32791U 08021J   25230.51157416  .00010130  00000-0  47052-3 0  9991
2 32791  97.7325 212.2034 0001275 301.1752  58.9357 15.20208698941119
RS-30
1 32953U 08025A   25230.82106585  .00000028  00000-0  13314-3 0  9999
2 32953  82.5054 183.5000 0017878 252.1971 107.7158 12.43167283782253
NOAA-19
1 33591U 09005A   25230.78272178  .00000063  00000-0  57461-4 0  9995
2 33591  98.9926 295.8661 0014186 161.6074 198.5614 14.13396955852025
SRMSAT
1 37841U 11058D   25230.32171043  .00000394  00000-0  70065-4 0  9999
2 37841  19.9721  92.5030 0011804 112.3197  43.1685 14.11453723714977
ZACUBE-1
1 39417U 13066B   25230.57283354  .00003899  00000-0  33580-3 0  9990
2 39417  97.7854 187.2596 0043793 175.1589 185.0065 14.97204784635382
Delfi-N3xt
1 39428U 13066N   25230.32768474  .00005122  00000-0  51363-3 0  9996
2 39428  97.8297 147.2204 0085070 129.8554 231.0187 14.89080491629456
GOMX-1
1 39430U 13066Q   25230.83978271  .00001398  00000-0  22286-3 0  9996
2 39430  97.6768  85.1776 0131261 328.1365  31.1948 14.67883619625710
LO-74
1 39440U 13066AA  25230.84766540  .00003507  00000-0  35382-3 0  9997
2 39440  97.8512 174.9518 0060015 309.2305  50.3594 14.90426788633101
AO-73
1 39444U 13066AE  25230.39700080  .00004701  00000-0  34634-3 0  9994
2 39444  97.7842 192.6344 0042295 148.5891 211.7873 15.03109199634077
DTUSAT-2
1 40030U 14033W   25230.39752532  .00005516  00000-0  35229-3 0  9997
2 40030  98.0612 205.6538 0009295 171.5816 188.5569 15.09072348606922
EO-80
1 40032U 14033Y   25230.41425455  .00006335  00000-0  40299-3 0  9996
2 40032  98.0487 205.2286 0010134 119.6209 240.6029 15.09145247606901
LILACSAT-2
1 40908U 15049K   25230.80229924  .00010661  00000-0  26578-3 0  9993
2 40908  97.5049 252.9073 0006906 264.1777  95.8681 15.40382005549036
IO-86
1 40931U 15052B   25151.18580175  .00001241  00000-0  78118-4 0  9996
2 40931   6.0006  24.0987 0012733 338.8432  21.1169 14.78805930523159
Horyu-4
1 41340U 16012D   25230.49169845  .00020802  00000-0  50574-3 0  9996
2 41340  30.9972  20.8422 0007469  67.7544 292.3894 15.39699620523569
Lapan A3
1 41603U 16040E   25230.87000597  .00003191  00000-0  11120-3 0  9995
2 41603  97.1400 232.7459 0011571  28.3287 331.8581 15.30294566508535
CAS-2T
1 41847U 16066G   25230.47940305  .00000572  00000-0  91144-4 0  9994
2 41847  98.4163 304.3237 0344831 327.1892  30.8297 14.43656952461100
CAS-4B
1 42759U 17034B   25230.78867459  .00098874  00000-0  65710-3 0  9996
2 42759  43.0026 260.4587 0020820  63.0286 297.2707 15.74104752453623
CAS-4A
1 42761U 17034D   25230.43146371  .00100779  00000-0  60959-3 0  9992
2 42761  43.0062 258.7783 0021569  65.5846 294.7272 15.76218361453593
TechnoSat
1 42829U 17042E   25230.73302335  .00003077  00000-0  23755-3 0  9999
2 42829  97.3987  36.1086 0018238  47.1004 313.1748 15.02133187441256
AO-91
1 43017U 17073E   25230.59198582  .00006449  00000-0  32655-3 0  9999
2 43017  97.5145  99.6041 0168117 288.0621  70.2354 15.05809418419745
S-Net D
1 43186U 18014G   25230.64410733  .00003702  00000-0  21676-3 0  9993
2 43186  97.5541 132.8349 0008617 357.0027   3.1150 15.12417902412965
S-Net B
1 43187U 18014H   25230.65042625  .00003888  00000-0  22752-3 0  9997
2 43187  97.5548 132.8164 0009133 351.2886   8.8184 15.12398825412962
S-Net A
1 43188U 18014J   25230.64424798  .00003781  00000-0  22123-3 0  9996
2 43188  97.5554 132.9697 0009048 352.1151   7.9936 15.12423961412967
S-Net C
1 43189U 18014K   25230.25602730  .00003905  00000-0  22853-3 0  9996
2 43189  97.5571 132.6115 0010311 344.1510  15.9396 15.12392400411459
Ten-Koh
1 43677U 18084G   25230.73933064  .00001964  00000-0  15949-3 0  9996
2 43677  98.0837  45.7738 0007861  42.6447 317.5385 15.00859184370763
PO-101
1 43678U 18084H   25230.83722348  .00002231  00000-0  19130-3 0  9993
2 43678  98.1064  49.6694 0009023  62.0042 298.2092 14.98601100370905
QO-100
1 43700U 18090A   25230.54031348  .00000132  00000-0  00000-0 0  9998
2 43700   0.0190  99.0144 0001161  81.4950   6.9530  1.00273625 24644
MinXSS-2
1 43758U 18099A   25230.46348976  .00012585  00000-0  46749-3 0  9997
2 43758  97.4972 296.7983 0009993 266.4406  93.5690 15.27648524367630
AO-95
1 43770U 18099N   25230.40106037  .00006389  00000-0  31420-3 0  9990
2 43770  97.4864 287.7442 0009319 336.6508  23.4302 15.18333920367148
SNUSat 2
1 43782U 18099AA  25230.08784755  .00006253  00000-0  33339-3 0  9997
2 43782  97.4551 283.6099 0010186 271.9132  88.0934 15.15486481367028
SnugLite
1 43784U 18099AC  25230.41590462  .00007154  00000-0  34831-3 0  9995
2 43784  97.4363 283.6428 0001812 260.7284  99.3746 15.18669890367236
ITASat 1
1 43786U 18099AE  25230.10695024  .00005373  00000-0  30151-3 0  9995
2 43786  97.4516 282.9283 0012982 331.1758  28.8755 15.13694945366979
EAGLET 1
1 43790U 18099AJ  25230.42825612  .00003755  00000-0  23754-3 0  9996
2 43790  97.4715 282.9585 0010681 314.4276  45.6078 15.09562710366607
ESEO
1 43792U 18099AL  25230.85154901  .00001353  00000-0  10526-3 0  9996
2 43792  97.4440 275.6825 0009823 285.4697  74.5444 15.02845672366376
JO-97
1 43803U 18099AX  25230.42873678  .00008586  00000-0  37642-3 0  9994
2 43803  97.4614 288.9245 0005852 254.0329 106.0263 15.22215952367394
Suomi 100
1 43804U 18099AY  25230.42870624  .00007220  00000-0  34247-3 0  9995
2 43804  97.4678 288.0116 0010561 261.7563  98.2474 15.19531258367304
ISAT
1 43879U 18111D   25230.49187322  .00016752  00000-0  53769-3 0  9995
2 43879  97.5889 146.5267 0006036 325.2105  34.8741 15.32371182364398
UWE-4
1 43880U 18111E   25230.27517974  .00012023  00000-0  44551-3 0  9999
2 43880  97.5832 144.2677 0009988 336.7624  23.3162 15.27745088364260
Sparrow
1 43881U 18111F   25230.34907202  .00018285  00000-0  56155-3 0  9994
2 43881  97.6045 149.5416 0006200  17.0655 343.0794 15.33762358364476
Prox-1
1 44339U 19036A   25230.57722651  .00008674  00000-0  10552-2 0  9999
2 44339  23.9980 321.5794 0007501 143.2140 216.8873 14.81215537328493
Taurus 1
1 44530U 19059C   25230.88165876  .00005333  00000-0  96943-3 0  9999
2 44530  98.6133  13.6734 0009744 172.6904 187.4442 14.66567233314242
Duchifat 3
1 44854U 19089C   25230.80185993  .00050452  00000-0  78928-3 0  9990
2 44854  36.9399 266.8166 0005934 175.0704 185.0113 15.52721950313841
TO-108
1 44881U 19093C   25230.80748849  .00000752  00000-0  92717-4 0  9991
2 44881  97.7886 304.9805 0013810   7.2036 352.9375 14.85724818306508
FloripaSat 1
1 44885U 19093G   25230.78171749  .00004656  00000-0  38781-3 0  9998
2 44885  97.8135 318.5495 0008698 333.7454  26.3327 14.99113269307265
RS-44
1 44909U 19096E   25230.36984858  .00000024  00000-0  44600-4 0  9998
2 44909  82.5239 180.9151 0218226 132.1754 229.8109 12.79742616263610
UPMSat 2
1 46276U 20061E   25230.18948975  .00101384  00000-0  54258-3 0  9991
2 46276  97.2361 307.4012 0001876 206.7745 153.3427 15.80044594276410
SALSAT
1 46495U 20068K   25230.51514605  .00005954  00000-0  25159-3 0  9991
2 46495  97.8661 211.8388 0009106 280.5707  79.4502 15.23621468269173
